CW6840 Weather Reports


time (UTC)temp
C
wind
direction
speed
KPH
gust
KPH
rain 1hr
cm
rain 24hr
cm
rain mn
cm
humidity
%
barometer
mb
20260507095003 0 196 3.2 14.5 0.00 0.00 0.00 76 1017.5
20260507094502 0 170 3.2 9.7 0.00 0.00 0.00 75 1017.5
20260507094003 1 191 3.2 14.5 0.00 0.00 0.00 75 1017.4
20260507093002 1 74 1.6 8.0 0.00 0.00 0.00 74 1017.3
20260507092503 1 157 3.2 11.3 0.00 0.00 0.00 71 1017.2
20260507091003 1 173 3.2 11.3 0.00 0.00 0.00 71 1017.2
20260507090502 1 191 3.2 9.7 0.00 0.00 0.00 70 1017.2
20260507090004 1 188 1.6 11.3 0.00 0.00 0.00 70 1017.1
20260507085503 1 161 3.2 12.9 0.00 0.00 0.00 70 1017.1
20260507085003 1 145 3.2 12.9 0.00 0.00 0.00 70 1017.0
20260507084503 1 172 6.4 14.5 0.00 0.00 0.00 71 1017.0
20260507084002 1 184 3.2 16.1 0.00 0.00 0.00 71 1017.0
20260507083503 1 191 3.2 14.5 0.00 0.00 0.00 71 1016.9
20260507083002 1 171 3.2 17.7 0.00 0.00 0.00 71 1016.9
20260507082002 1 196 3.2 14.5 0.00 0.00 0.00 71 1016.9
20260507081502 1 197 3.2 12.9 0.00 0.00 0.00 71 1016.8
20260507081003 1 205 3.2 9.7 0.00 0.00 0.00 72 1016.8
20260507080503 1 196 6.4 20.9 0.00 0.00 0.00 71 1016.7
20260507080003 1 198 1.6 6.4 0.00 0.00 0.00 72 1016.7
20260507075502 1 180 6.4 16.1 0.00 0.00 0.00 73 1016.7
20260507075003 1 177 6.4 17.7 0.00 0.00 0.00 73 1016.6
20260507074502 1 189 8.0 19.3 0.00 0.00 0.00 73 1016.7
20260507074002 1 185 6.4 14.5 0.00 0.00 0.00 74 1016.7
20260507073502 1 169 4.8 11.3 0.00 0.00 0.00 74 1016.7
20260507072502 1 201 4.8 16.1 0.00 0.00 0.00 74 1016.6
20260507071502 1 155 3.2 12.9 0.00 0.00 0.00 75 1016.6
20260507071003 1 183 4.8 16.1 0.00 0.00 0.00 76 1016.5
20260507070503 1 170 4.8 16.1 0.00 0.00 0.00 76 1016.5
20260507070004 1 197 4.8 12.9 0.00 0.00 0.00 77 1016.5
20260507065502 0 187 3.2 11.3 0.00 0.00 0.00 76 1016.5
20260507065003 0 174 1.6 11.3 0.00 0.00 0.00 76 1016.4
20260507064502 0 192 3.2 12.9 0.00 0.00 0.00 77 1016.3
20260507064003 0 185 1.6 11.3 0.00 0.00 0.00 77 1016.3
20260507063502 0 178 3.2 19.3 0.00 0.00 0.00 77 1016.3
20260507063002 0 167 3.2 9.7 0.00 0.00 0.00 77 1016.3
20260507062503 0 171 1.6 3.2 0.00 0.00 0.00 78 1016.3
20260507062003 0 171 1.6 8.0 0.00 0.00 0.00 78 1016.3
20260507061502 0 184 1.6 4.8 0.00 0.00 0.00 79 1016.1
20260507061003 0 173 1.6 6.4 0.00 0.00 0.00 78 1016.1
20260507060002 0 175 3.2 9.7 0.00 0.00 0.00 79 1016.1
20260507055502 0 178 0.0 0.0 0.00 0.00 0.00 78 1016.1
20260507055003 0 160 1.6 4.8 0.00 0.00 0.00 79 1016.0
20260507054502 0 142 0.0 0.0 0.00 0.00 0.00 79 1016.0
20260507054003 0 142 1.6 1.6 0.00 0.00 0.00 79 1016.0
20260507053503 0 159 1.6 11.3 0.00 0.00 0.00 79 1016.0
20260507053003 0 176 1.6 9.7 0.00 0.00 0.00 79 1016.0
20260507052503 1 180 1.6 6.4 0.00 0.00 0.00 79 1016.0
20260507052003 1 172 6.4 12.9 0.00 0.00 0.00 79 1015.9
20260507051503 1 162 1.6 8.0 0.00 0.00 0.00 79 1015.9
20260507051003 1 141 1.6 6.4 0.00 0.00 0.00 79 1015.9
20260507050002 1 146 1.6 9.7 0.00 0.00 0.00 79 1015.9
20260507045003 1 219 4.8 19.3 0.00 0.00 0.00 77 1015.9
20260507044503 1 206 6.4 19.3 0.00 0.00 0.00 75 1015.8
20260507044002 1 202 3.2 11.3 0.00 0.00 0.00 74 1015.8
20260507043503 1 225 6.4 14.5 0.00 0.00 0.00 73 1015.8
20260507043003 1 164 1.6 6.4 0.00 0.00 0.00 73 1015.7
20260507042503 1 131 1.6 9.7 0.00 0.00 0.00 73 1015.7
20260507042002 1 119 1.6 9.7 0.00 0.00 0.00 73 1015.6
20260507041503 1 158 1.6 4.8 0.00 0.00 0.00 73 1015.6
20260507041002 1 162 0.0 0.0 0.00 0.00 0.00 73 1015.6
20260507040502 1 162 0.0 0.0 0.00 0.00 0.00 73 1015.6
20260507040004 1 162 1.6 3.2 0.00 0.00 0.00 73 1015.6
20260507035502 2 152 1.6 6.4 0.00 0.00 0.00 73 1015.6
20260507035002 2 159 3.2 12.9 0.00 0.00 0.00 73 1015.6
20260507034503 2 182 3.2 9.7 0.00 0.00 0.00 73 1015.5
20260507034003 2 187 4.8 14.5 0.00 0.00 0.00 72 1015.5
20260507033002 2 101 1.6 6.4 0.00 0.00 0.00 72 1015.3
20260507032503 2 86 0.0 1.6 0.00 0.00 0.00 72 1015.3
20260507032003 2 101 4.8 16.1 0.00 0.00 0.00 72 1015.2
20260507031502 2 223 1.6 12.9 0.00 0.00 0.00 72 1015.3
20260507031003 2 194 4.8 14.5 0.00 0.00 0.00 72 1015.3
20260507030503 2 177 8.0 20.9 0.00 0.00 0.00 71 1015.2
20260507030003 2 175 6.4 14.5 0.00 0.00 0.00 71 1015.2
20260507025503 2 180 4.8 14.5 0.00 0.00 0.00 70 1015.1
20260507025002 2 165 3.2 14.5 0.00 0.00 0.00 70 1015.2
20260507024002 2 153 1.6 8.0 0.00 0.00 0.00 70 1015.1
20260507023503 2 160 3.2 8.0 0.00 0.00 0.00 70 1015.0
20260507023003 2 173 1.6 4.8 0.00 0.00 0.00 69 1015.0
20260507022502 2 89 3.2 8.0 0.00 0.00 0.00 69 1015.0
20260507022003 2 175 6.4 16.1 0.00 0.00 0.00 69 1015.0
20260507021503 3 179 3.2 12.9 0.00 0.00 0.00 69 1014.9
20260507021002 3 192 3.2 14.5 0.00 0.00 0.00 69 1014.9
20260507020502 3 214 4.8 17.7 0.00 0.00 0.00 69 1014.9
20260507020002 3 196 4.8 14.5 0.00 0.00 0.00 68 1014.9
20260507015502 3 193 4.8 16.1 0.00 0.00 0.00 68 1014.8
20260507015002 3 194 8.0 24.1 0.00 0.00 0.00 68 1014.8
20260507014503 3 180 6.4 16.1 0.00 0.00 0.00 67 1014.8
20260507013502 3 205 3.2 11.3 0.00 0.00 0.00 67 1014.7
20260507013002 3 203 6.4 16.1 0.00 0.00 0.00 67 1014.8
20260507012503 3 214 6.4 19.3 0.00 0.00 0.00 68 1014.8
20260507011003 3 198 4.8 9.7 0.00 0.00 0.00 68 1014.7
20260507010502 3 201 4.8 16.1 0.00 0.00 0.00 68 1014.7
20260507010003 3 198 4.8 12.9 0.00 0.00 0.00 68 1014.7
20260507005503 3 201 3.2 9.7 0.00 0.00 0.00 68 1014.6
20260507005003 3 204 3.2 14.5 0.00 0.00 0.00 68 1014.6
20260507004504 3 167 4.8 12.9 0.00 0.00 0.00 68 1014.6
20260507004002 3 211 4.8 14.5 0.00 0.00 0.00 68 1014.5
20260507003003 4 213 4.8 16.1 0.00 0.00 0.00 67 1014.5
20260507002502 4 216 4.8 24.1 0.00 0.00 0.00 67 1014.5
20260507001502 4 211 4.8 11.3 0.00 0.00 0.00 67 1014.5
20260507001003 3 202 6.4 12.9 0.00 0.00 0.00 67 1014.4
20260507000002 3 198 6.4 19.3 0.00 0.00 0.00 67 1014.4
20260506235503 3 199 6.4 17.7 0.00 0.00 0.00 67 1014.3
20260506235003 4 213 6.4 17.7 0.00 0.00 0.00 67 1014.3
20260506234504 4 211 6.4 20.9 0.00 0.00 0.00 67 1014.3
20260506234003 3 201 4.8 12.9 0.00 0.00 0.00 68 1014.3
20260506233003 4 199 4.8 11.3 0.00 0.00 0.00 67 1014.2
20260506232002 3 220 8.0 19.3 0.00 0.00 0.00 68 1014.1
20260506231503 3 212 6.4 12.9 0.00 0.00 0.00 69 1014.1
20260506231003 3 215 4.8 16.1 0.00 0.00 0.00 68 1014.1
20260506230503 4 213 8.0 16.1 0.00 0.00 0.00 67 1014.1
20260506230003 4 214 4.8 14.5 0.00 0.00 0.00 67 1014.1
20260506225502 4 211 6.4 17.7 0.00 0.00 0.00 66 1014.0
20260506225002 4 235 4.8 12.9 0.00 0.00 0.00 67 1014.0
20260506224503 4 229 6.4 17.7 0.00 0.00 0.00 68 1013.9
20260506224002 4 200 6.4 14.5 0.00 0.00 0.00 66 1013.9
20260506223502 4 213 6.4 17.7 0.00 0.00 0.00 66 1013.9
20260506223003 4 202 4.8 14.5 0.00 0.00 0.00 67 1013.8
20260506222503 4 216 6.4 14.5 0.00 0.00 0.00 67 1013.7
20260506222002 4 204 3.2 17.7 0.00 0.00 0.00 66 1013.7
20260506221502 4 232 4.8 16.1 0.00 0.00 0.00 67 1013.7
20260506220502 4 225 4.8 12.9 0.00 0.00 0.00 68 1013.7
20260506220002 3 208 4.8 16.1 0.00 0.00 0.00 69 1013.7
20260506215502 3 229 3.2 11.3 0.00 0.00 0.00 67 1013.7
20260506215003 4 228 3.2 9.7 0.00 0.00 0.00 67 1013.7
20260506214503 4 234 3.2 14.5 0.00 0.00 0.00 68 1013.6
20260506214002 4 216 4.8 14.5 0.00 0.00 0.00 68 1013.7
20260506212503 5 213 6.4 17.7 0.00 0.00 0.00 64 1013.5
20260506212003 5 237 6.4 17.7 0.00 0.00 0.00 65 1013.4
20260506211503 5 214 4.8 16.1 0.00 0.00 0.00 64 1013.3
20260506211003 5 234 4.8 14.5 0.00 0.00 0.00 63 1013.3
20260506210502 5 224 3.2 14.5 0.00 0.00 0.00 65 1013.3
20260506210002 5 239 3.2 12.9 0.00 0.00 0.00 65 1013.3
20260506205502 5 189 1.6 9.7 0.00 0.00 0.00 67 1013.2
20260506204503 3 190 4.8 8.0 0.00 0.00 0.00 67 1013.3
20260506204003 3 218 3.2 9.7 0.00 0.00 0.00 71 1013.2
20260506203502 3 211 3.2 11.3 0.00 0.00 0.00 71 1013.2
20260506203002 3 210 3.2 11.3 0.00 0.00 0.00 70 1013.2
20260506202502 3 190 3.2 9.7 0.00 0.00 0.00 69 1013.2
20260506202003 3 214 3.2 11.3 0.00 0.00 0.00 68 1013.1
20260506201502 3 258 1.6 6.4 0.00 0.00 0.00 70 1013.0
20260506201002 3 228 3.2 9.7 0.00 0.00 0.00 70 1013.0
20260506200003 3 220 3.2 9.7 0.00 0.00 0.00 70 1013.0
20260506195503 3 259 3.2 11.3 0.00 0.00 0.00 70 1012.9
20260506195003 3 283 1.6 6.4 0.00 0.00 0.00 71 1012.8
20260506194503 3 233 3.2 6.4 0.00 0.00 0.00 71 1012.9
20260506193502 3 269 3.2 8.0 0.00 0.00 0.00 71 1012.8
20260506193002 3 248 1.6 6.4 0.00 0.00 0.00 70 1012.8
20260506192502 3 267 3.2 11.3 0.00 0.00 0.00 71 1012.8
20260506192003 3 228 3.2 8.0 0.00 0.00 0.00 70 1012.7
20260506191503 3 212 3.2 8.0 0.00 0.00 0.00 71 1012.7
20260506191002 3 279 3.2 8.0 0.00 0.00 0.00 72 1012.8
20260506190503 3 279 1.6 3.2 0.00 0.00 0.00 71 1012.7
20260506185502 3 285 1.6 4.8 0.00 0.00 0.00 73 1012.7
20260506185002 3 284 1.6 3.2 0.00 0.00 0.00 73 1012.7
20260506184503 2 277 1.6 6.4 0.00 0.00 0.00 74 1012.6
20260506183503 2 255 1.6 1.6 0.00 0.00 0.00 75 1012.6
20260506183003 2 255 1.6 6.4 0.00 0.00 0.00 76 1012.6
20260506182002 2 261 1.6 4.8 0.00 0.00 0.00 78 1012.6
20260506181502 2 252 1.6 9.7 0.00 0.00 0.00 78 1012.5
20260506181002 2 246 1.6 4.8 0.00 0.00 0.00 77 1012.5
20260506180502 2 188 1.6 8.0 0.00 0.00 0.00 77 1012.4
20260506175502 2 172 1.6 6.4 0.00 0.00 0.00 79 1012.4
20260506174002 1 162 0.0 0.0 0.00 0.00 0.00 80 1012.3
20260506173003 1 162 0.0 0.0 0.00 0.00 0.00 81 1012.2
20260506172503 1 162 0.0 0.0 0.00 0.00 0.00 82 1012.2
20260506172003 1 162 0.0 0.0 0.00 0.00 0.00 83 1012.2
20260506171502 1 162 0.0 0.0 0.00 0.00 0.00 84 1012.2
20260506171003 1 162 0.0 0.0 0.00 0.00 0.00 84 1012.2
20260506170502 1 162 0.0 0.0 0.00 0.00 0.00 85 1012.3
20260506170003 0 162 0.0 0.0 0.00 0.00 0.00 86 1012.2
20260506165503 0 162 0.0 0.0 0.00 0.00 0.00 88 1012.1
20260506165003 0 162 0.0 0.0 0.00 0.00 0.00 88 1012.1
20260506164503 0 162 0.0 0.0 0.00 0.00 0.00 88 1012.1
20260506164002 0 162 0.0 0.0 0.00 0.00 0.00 88 1012.0
20260506163502 0 162 0.0 0.0 0.00 0.00 0.00 89 1012.0
20260506163002 0 162 0.0 0.0 0.00 0.00 0.00 89 1012.0
20260506162502 0 162 0.0 0.0 0.00 0.00 0.00 89 1012.0
20260506162003 0 162 0.0 0.0 0.00 0.00 0.00 88 1012.0
20260506161502 0 162 0.0 0.0 0.00 0.00 0.00 88 1012.0
20260506160503 0 162 1.6 6.4 0.00 0.00 0.00 88 1011.9
20260506160003 0 162 1.6 8.0 0.00 0.00 0.00 89 1011.9
20260506155503 0 163 1.6 6.4 0.00 0.00 0.00 90 1011.9
20260506155004 0 161 1.6 8.0 0.00 0.00 0.00 90 1011.9
20260506154502 0 158 1.6 1.6 0.00 0.00 0.00 90 1011.8
20260506154002 0 158 1.6 3.2 0.00 0.00 0.00 90 1011.8
20260506153505 0 159 1.6 3.2 0.00 0.00 0.00 90 1011.8
20260506153002 0 161 0.0 0.0 0.00 0.00 0.00 91 1011.8
20260506152502 -1 161 0.0 0.0 0.00 0.00 0.00 91 1011.8
20260506152002 -1 161 0.0 3.2 0.00 0.00 0.00 91 1011.8
20260506151502 -1 164 1.6 6.4 0.00 0.00 0.00 91 1011.8
20260506151003 -1 165 1.6 6.4 0.00 0.00 0.00 91 1011.8
20260506150503 -1 166 3.2 9.7 0.00 0.00 0.00 91 1011.7
20260506150002 -1 171 1.6 3.2 0.00 0.00 0.00 91 1011.7
20260506145502 -1 172 1.6 8.0 0.00 0.00 0.00 91 1011.7
20260506145002 -1 173 1.6 3.2 0.00 0.00 0.00 91 1011.8
20260506144502 -1 173 1.6 3.2 0.00 0.00 0.00 91 1011.7
20260506144002 -1 173 1.6 4.8 0.00 0.00 0.00 91 1011.7
20260506143502 -1 180 3.2 6.4 0.00 0.00 0.00 91 1011.7
20260506143002 -1 158 4.8 8.0 0.00 0.00 0.00 90 1011.7
20260506142502 -1 129 1.6 4.8 0.00 0.00 0.00 90 1011.7
20260506142003 -1 127 1.6 1.6 0.00 0.00 0.00 90 1011.7
20260506141503 -1 127 0.0 0.0 0.00 0.00 0.00 89 1011.8
20260506141003 -1 127 0.0 0.0 0.00 0.00 0.00 89 1011.8
20260506140502 -1 127 1.6 3.2 0.00 0.00 0.00 89 1011.7
20260506140002 -1 127 0.0 1.6 0.00 0.00 0.00 88 1011.7
20260506135503 -1 127 1.6 4.8 0.00 0.00 0.00 88 1011.8
20260506135003 -1 127 3.2 4.8 0.00 0.00 0.00 87 1011.8
20260506134002 -1 126 1.6 3.2 0.00 0.00 0.00 87 1011.7
20260506133502 -1 126 1.6 1.6 0.00 0.00 0.00 86 1011.7
20260506133002 -1 126 1.6 3.2 0.00 0.00 0.00 86 1011.7
20260506132502 -1 111 1.6 4.8 0.00 0.00 0.00 86 1011.7
20260506132003 -1 107 0.0 0.0 0.00 0.00 0.00 86 1011.6
20260506131502 -1 107 0.0 0.0 0.00 0.00 0.00 85 1011.6
20260506130003 -1 107 0.0 0.0 0.00 0.00 0.00 84 1011.7
20260506125502 -1 107 0.0 0.0 0.00 0.00 0.00 84 1011.6
20260506124502 -1 107 0.0 0.0 0.00 0.00 0.00 82 1011.6
20260506123503 0 107 0.0 0.0 0.00 0.00 0.00 82 1011.5
20260506123002 0 107 0.0 0.0 0.00 0.00 0.00 82 1011.5
20260506122502 0 107 0.0 0.0 0.00 0.00 0.00 81 1011.5
20260506121503 0 107 0.0 0.0 0.00 0.00 0.00 81 1011.4
20260506120503 0 107 0.0 0.0 0.00 0.00 0.00 81 1011.4
20260506120003 0 107 0.0 0.0 0.00 0.00 0.00 80 1011.4
20260506115503 0 107 0.0 0.0 0.00 0.00 0.00 81 1011.3
20260506115002 0 107 0.0 0.0 0.00 0.00 0.00 80 1011.3
20260506114503 0 107 0.0 0.0 0.00 0.00 0.00 80 1011.3
20260506114003 0 107 1.6 1.6 0.00 0.00 0.00 80 1011.3
20260506113503 0 107 0.0 4.8 0.00 0.00 0.00 80 1011.3
20260506113002 0 103 1.6 3.2 0.00 0.00 0.00 80 1011.2
20260506112503 0 103 0.0 0.0 0.00 0.00 0.00 81 1011.3
20260506111502 0 103 0.0 0.0 0.00 0.00 0.00 82 1011.2
20260506111003 0 103 0.0 0.0 0.00 0.00 0.00 82 1011.2
20260506110502 0 103 0.0 0.0 0.00 0.00 0.00 82 1011.2
20260506110003 0 103 0.0 0.0 0.00 0.00 0.00 81 1011.1
20260506105503 0 103 0.0 0.0 0.00 0.00 0.00 81 1011.1
20260506105003 0 103 1.6 4.8 0.00 0.00 0.00 81 1011.1
20260506104503 0 110 1.6 6.4 0.00 0.00 0.00 81 1011.1
20260506104003 0 158 0.0 0.0 0.00 0.00 0.00 81 1011.1
20260506103502 0 158 0.0 0.0 0.00 0.00 0.00 82 1011.1
20260506103002 0 158 1.6 1.6 0.00 0.00 0.00 81 1011.1
20260506102502 0 158 1.6 1.6 0.00 0.00 0.00 81 1011.1
20260506102002 0 158 1.6 3.2 0.00 0.00 0.00 82 1011.0
20260506101503 0 159 1.6 1.6 0.00 0.00 0.00 82 1011.0
20260506100502 0 160 1.6 1.6 0.00 0.00 0.00 82 1011.0
20260506100002 0 160 0.0 6.4 0.00 0.00 0.00 82 1011.0